Veïnat del Coll





Hora UTC 16:10
Temperatura 18.3 ºC
Humedad 87.0 %
Presión 1017.1 hPa
Pluja 0.0 mm
Velocidad viento 6.4 km/h
Dirección viento ESE

Datos diarios 2019-09-20



Hora UTC (invierno +1h; verano +2h)
Temperatura (ºC) Humedad (%) Presión (hPa) Velocidad viento (km/h) Precipitación (mm)
Hora UTC Aire Humedad Presión Vel. Dir. Vel. Max Dir. Intent. máx 5 min.
00:05 14.9 84.0 1018.0 0.0 NNW 0.0 0.0
00:10 14.8 84.0 1017.9 0.0 NNW 0.0 0.0
00:15 14.7 83.0 1018.0 0.0 NNW 0.0 0.0
00:20 14.7 83.0 1017.9 0.0 NNW 0.0 0.0
00:25 14.7 83.0 1018.0 0.0 NNW 0.0 0.0
00:30 14.7 83.0 1018.1 0.0 NNW 0.0 0.0
00:35 14.9 82.0 1018.1 0.0 NNW 0.0 0.0
00:40 15.1 82.0 1018.1 0.0 NNW 0.0 0.0
00:45 15.4 80.0 1018.1 0.0 NNW 0.0 0.0
00:50 15.6 80.0 1018.0 0.0 NNW 0.0 0.0
00:55 15.7 80.0 1018.1 0.0 NNW 0.0 0.0
01:00 15.7 79.0 1018.1 0.0 NNW 0.0 0.0
01:05 15.7 79.0 1018.1 0.0 NNW 0.0 0.0
01:10 15.6 79.0 1017.9 0.0 NNW 0.0 0.0
01:15 15.6 80.0 1017.9 0.0 NNW 0.0 0.0
01:20 15.6 80.0 1018.0 0.0 NNW 0.0 0.0
01:25 15.6 81.0 1017.9 0.0 NNW 0.0 0.0
01:30 15.6 81.0 1018.0 0.0 NNW 0.0 0.0
01:35 15.6 81.0 1017.9 0.0 NNW 0.0 0.0
01:40 15.6 82.0 1018.0 0.0 NNW 0.0 0.0
01:45 15.6 82.0 1017.9 0.0 NNW 0.0 0.0
01:50 15.4 82.0 1017.8 0.0 NNW 0.0 0.0
01:55 15.2 83.0 1017.8 0.0 NNW 0.0 0.0
02:00 15.0 84.0 1017.8 0.0 NNW 0.0 0.0
02:05 14.9 84.0 1017.7 0.0 NNW 0.0 0.0
02:10 14.9 84.0 1017.7 0.0 NNW 0.0 0.0
02:15 15.0 84.0 1017.9 0.0 NNW 0.0 0.0
02:20 15.1 84.0 1017.9 0.0 NNW 0.0 0.0
02:25 15.1 84.0 1017.9 0.0 NNW 0.0 0.0
02:30 15.1 85.0 1017.9 0.0 NNW 0.0 0.0
02:35 15.1 86.0 1017.8 0.0 NNW 0.0 0.0
02:40 15.1 86.0 1017.8 0.0 NNW 0.0 0.0
02:45 15.2 86.0 1017.7 0.0 NNW 0.0 0.0
02:50 15.2 86.0 1017.8 0.0 NNW 0.0 0.0
02:55 15.1 87.0 1017.8 0.0 NNW 0.0 0.0
03:00 15.1 87.0 1017.7 0.0 NNW 0.0 0.0
03:05 14.9 86.0 1017.6 0.0 NNW 0.0 0.0
03:10 14.8 86.0 1017.6 0.0 NNW 0.0 0.0
03:15 14.7 87.0 1017.5 0.0 NNW 0.0 0.0
03:20 14.6 87.0 1017.5 0.0 NNW 0.0 0.0
03:25 14.5 88.0 1017.4 0.0 NNW 0.0 0.0
03:30 14.4 88.0 1017.3 0.0 NNW 0.0 0.0
03:35 14.3 88.0 1017.3 0.0 NNW 0.0 0.0
03:40 14.2 89.0 1017.4 0.0 NNW 0.0 0.0
03:45 14.2 89.0 1017.5 0.0 NNW 0.0 0.0
03:50 14.2 90.0 1017.5 0.0 NNW 0.0 0.0
03:55 14.2 90.0 1017.5 0.0 NNW 0.0 0.0
04:00 14.3 90.0 1017.5 0.0 NNW 0.0 0.0
04:05 14.3 90.0 1017.5 0.0 NNW 0.0 0.0
04:10 14.2 90.0 1017.5 0.0 NNW 0.0 0.0
04:15 14.2 90.0 1017.4 0.0 NNW 0.0 0.0
04:20 14.3 90.0 1017.4 0.0 NNW 0.0 0.0
04:25 14.2 90.0 1017.4 1.6 NNW 0.0 0.0
04:30 14.2 90.0 1017.3 0.0 NNW 0.0 0.0
04:35 14.3 89.0 1017.5 0.0 NNW 0.0 0.0
04:40 14.3 89.0 1017.5 0.0 NNW 0.0 0.0
04:45 14.2 89.0 1017.5 0.0 NNW 0.0 0.0
04:50 14.2 89.0 1017.5 0.0 NNW 0.0 0.0
04:55 14.2 88.0 1017.5 0.0 NNW 0.0 0.0
05:00 14.1 88.0 1017.5 0.0 NNW 0.0 0.0
05:05 14.0 88.0 1017.5 0.0 NNW 0.0 0.0
05:10 13.9 88.0 1017.5 0.0 NNW 0.0 0.0
05:15 13.8 88.0 1017.5 0.0 NNW 0.0 0.0
05:20 13.8 88.0 1017.5 1.6 NNW 0.0 0.0
05:25 13.7 88.0 1017.6 0.0 NNW 0.0 0.0
05:30 13.7 88.0 1017.6 0.0 NNW 0.0 0.0
05:35 13.6 88.0 1017.4 0.0 NNW 0.0 0.0
05:40 13.6 88.0 1017.6 1.6 NNW 0.0 0.0
05:45 13.6 88.0 1017.5 3.2 NNW 0.0 0.0
05:50 13.6 88.0 1017.5 1.6 NNW 0.0 0.0
05:55 13.7 87.0 1017.6 0.0 NNW 0.0 0.0
06:00 13.6 87.0 1017.7 0.0 NNW 0.0 0.0
06:05 13.7 87.0 1017.7 0.0 NNW 0.0 0.0
06:10 13.6 87.0 1017.7 0.0 NNW 0.0 0.0
06:15 13.6 87.0 1017.7 0.0 NNW 0.0 0.0
06:20 13.6 88.0 1017.8 0.0 NNW 0.0 0.0
06:25 13.7 88.0 1017.9 0.0 NNW 0.0 0.0
06:30 13.9 89.0 1017.9 0.0 NNW 0.0 0.0
06:35 14.4 89.0 1017.9 0.0 NNW 0.0 0.0
06:40 14.7 89.0 1018.0 0.0 NNW 0.0 0.0
06:45 15.1 88.0 1018.0 0.0 NNW 0.0 0.0
06:50 15.6 87.0 1018.1 0.0 NNW 0.0 0.0
06:55 16.0 85.0 1018.1 0.0 NNW 0.0 0.0
07:00 16.4 81.0 1018.2 4.8 NNW 0.0 0.0
07:05 16.9 79.0 1018.2 3.2 NNW 0.0 0.0
07:10 17.0 77.0 1018.2 0.0 NNW 0.0 0.0
07:15 17.3 75.0 1018.3 0.0 NNW 0.0 0.0
07:20 17.4 76.0 1018.3 3.2 N 0.0 0.0
07:25 17.5 74.0 1018.4 6.4 N 0.0 0.0
07:30 17.6 74.0 1018.6 4.8 NE 0.0 0.0
07:35 17.7 73.0 1018.6 0.0 ENE 0.0 0.0
07:40 17.8 74.0 1018.7 3.2 ENE 0.0 0.0
07:45 17.9 74.0 1018.8 4.8 ENE 0.0 0.0
07:50 18.0 74.0 1018.8 3.2 ENE 0.0 0.0
07:55 18.0 73.0 1018.8 4.8 ENE 0.0 0.0
08:00 18.0 74.0 1018.8 4.8 E 0.0 0.0
08:05 18.1 73.0 1018.9 6.4 E 0.0 0.0
08:10 18.0 73.0 1018.9 0.0 E 0.0 0.0
08:15 18.1 74.0 1018.9 3.2 E 0.0 0.0
08:20 18.1 74.0 1018.9 9.7 ESE 0.0 0.0
08:25 18.3 74.0 1018.9 8.0 ESE 0.0 0.0
08:30 18.4 74.0 1018.9 6.4 ESE 0.0 0.0
08:35 18.3 72.0 1019.0 6.4 ESE 0.0 0.0
08:40 18.2 73.0 1018.9 3.2 ESE 0.0 0.0
08:45 18.2 73.0 1019.0 6.4 ESE 0.0 0.0
08:50 18.1 73.0 1019.0 1.6 ESE 0.0 0.0
08:55 17.9 74.0 1019.0 6.4 ESE 0.0 0.0
09:00 17.9 75.0 1019.1 3.2 ESE 0.0 0.0
09:05 17.9 75.0 1019.1 3.2 ESE 0.0 0.0
09:10 17.9 76.0 1019.1 1.6 ESE 0.0 0.0
09:15 18.1 74.0 1019.1 1.6 ESE 0.0 0.0
09:20 18.2 74.0 1019.1 6.4 ESE 0.0 0.0
09:25 18.3 73.0 1019.2 3.2 ESE 0.0 0.0
09:30 18.4 74.0 1019.2 8.0 ESE 0.0 0.0
09:35 18.3 74.0 1019.2 3.2 ESE 0.0 0.0
09:40 18.2 75.0 1019.1 1.6 E 0.0 0.0
09:45 18.3 77.0 1019.2 8.0 E 0.0 0.0
09:50 18.4 72.0 1019.2 1.6 ESE 0.0 0.0
09:55 18.6 71.0 1019.1 8.0 ESE 0.0 0.0
10:00 18.8 71.0 1019.2 3.2 ESE 0.0 0.0
10:05 18.9 73.0 1019.1 6.4 ESE 0.0 0.0
10:10 19.1 70.0 1019.1 3.2 ESE 0.0 0.0
10:15 19.1 70.0 1019.1 0.0 ESE 0.0 0.0
10:20 18.9 70.0 1019.1 3.2 ESE 0.0 0.0
10:25 18.9 70.0 1019.1 6.4 ESE 0.0 0.0
10:30 18.9 69.0 1019.1 1.6 ESE 0.0 0.0
10:35 19.0 71.0 1019.0 6.4 ESE 0.0 0.0
10:40 19.0 68.0 1019.1 9.7 ESE 0.0 0.0
10:45 19.0 71.0 1019.0 3.2 ESE 0.0 0.0
10:50 19.0 70.0 1019.0 0.0 ESE 0.0 0.0
10:55 19.1 70.0 1018.9 3.2 E 0.0 0.0
11:00 19.0 68.0 1018.8 11.3 E 0.0 0.0
11:05 18.9 71.0 1018.8 6.4 E 0.0 0.0
11:10 19.0 70.0 1018.8 6.4 E 0.0 0.0
11:15 19.0 72.0 1018.8 6.4 ESE 0.0 0.0
11:20 18.9 71.0 1018.8 3.2 ESE 0.0 0.0
11:25 18.8 73.0 1018.8 8.0 E 0.0 0.0
11:30 18.9 71.0 1018.7 8.0 E 0.0 0.0
11:35 19.1 71.0 1018.6 9.7 E 0.0 0.0
11:40 19.1 71.0 1018.6 8.0 E 0.0 0.0
11:45 19.1 72.0 1018.5 3.2 E 0.0 0.0
11:50 19.1 71.0 1018.5 9.7 E 0.0 0.0
11:55 19.1 70.0 1018.5 6.4 E 0.0 0.0
12:00 19.2 70.0 1018.4 3.2 E 0.0 0.0
12:05 19.1 69.0 1018.5 6.4 E 0.0 0.0
12:10 19.1 71.0 1018.3 9.7 ESE 0.0 0.0
12:15 19.2 70.0 1018.4 11.3 E 0.0 0.0
12:20 19.2 71.0 1018.3 6.4 ESE 0.0 0.0
12:25 19.4 71.0 1018.3 9.7 E 0.0 0.0
12:30 19.5 70.0 1018.4 8.0 ESE 0.0 0.0
12:35 19.6 70.0 1018.3 8.0 ESE 0.0 0.0
12:40 19.6 70.0 1018.2 1.6 ESE 0.0 0.0
12:45 19.7 70.0 1018.1 6.4 ESE 0.0 0.0
12:50 19.8 70.0 1018.1 9.7 ESE 0.0 0.0
12:55 19.9 70.0 1017.9 3.2 ESE 0.0 0.0
13:00 19.9 70.0 1018.0 6.4 ESE 0.0 0.0
13:05 20.1 71.0 1018.1 6.4 ESE 0.0 0.0
13:10 20.1 69.0 1018.0 9.7 ESE 0.0 0.0
13:15 19.9 70.0 1017.9 11.3 ESE 0.0 0.0
13:20 20.0 71.0 1018.0 9.7 ESE 0.0 0.0
13:25 20.0 71.0 1018.0 6.4 ESE 0.0 0.0
13:30 19.9 72.0 1017.9 9.7 ESE 0.0 0.0
13:35 19.9 73.0 1017.8 6.4 E 0.0 0.0
13:40 19.9 74.0 1017.7 3.2 ESE 0.0 0.0
13:45 20.1 73.0 1017.8 3.2 ESE 0.0 0.0
13:50 20.2 73.0 1017.7 8.0 ESE 0.0 0.0
13:55 20.1 73.0 1017.7 6.4 ESE 0.0 0.0
14:00 20.1 73.0 1017.8 3.2 ESE 0.0 0.0
14:05 20.1 74.0 1017.8 3.2 ESE 0.0 0.0
14:10 20.1 74.0 1017.7 6.4 ESE 0.0 0.0
14:15 20.1 74.0 1017.7 6.4 ESE 0.0 0.0
14:20 20.0 74.0 1017.6 1.6 ESE 0.0 0.0
14:25 19.9 74.0 1017.6 6.4 ESE 0.0 0.0
14:30 19.9 74.0 1017.7 0.0 ESE 0.0 0.0
14:35 19.8 74.0 1017.5 0.0 ESE 0.0 0.0
14:40 19.8 75.0 1017.5 6.4 ESE 0.0 0.0
14:45 19.7 75.0 1017.4 0.0 ESE 0.0 0.0
14:50 19.6 76.0 1017.2 6.4 ESE 0.0 0.0
14:55 19.4 77.0 1017.2 6.4 ESE 0.0 0.0
15:00 19.3 78.0 1017.2 0.0 ESE 0.0 0.0
15:05 19.2 78.0 1017.1 9.7 ESE 0.0 0.0
15:10 19.1 79.0 1017.1 3.2 ESE 0.0 0.0
15:15 19.2 80.0 1017.1 6.4 ESE 0.0 0.0
15:20 19.1 81.0 1017.1 3.2 ESE 0.0 0.0
15:25 19.0 82.0 1017.1 6.4 ESE 0.0 0.0
15:30 18.9 82.0 1017.1 3.2 ESE 0.0 0.0
15:35 18.9 84.0 1017.0 6.4 ESE 0.0 0.0
15:40 18.8 84.0 1017.0 12.9 ESE 0.0 0.0
15:45 18.7 85.0 1017.1 0.0 ESE 0.0 0.0
15:50 18.6 85.0 1017.0 6.4 ESE 0.0 0.0
15:55 18.4 86.0 1017.0 6.4 ESE 0.0 0.0
16:00 18.4 87.0 1017.1 3.2 ESE 0.0 0.0
16:05 18.3 87.0 1017.1 1.6 ESE 0.0 0.0
16:10 18.3 87.0 1017.1 6.4 ESE 0.0 0.0
Máxima 20.2 90.0 1019.2 12.9 ESE 0.0 0.0
Mínima 13.6 68.0 1017.0
Total 0.0